• In Switzerland
  • List of Countries
  • For 7 days
  • Water Temperature
  • Satellite Maps
  • Weather Map
  • Weather Widgets
  • user-avatar
    Login

    Hourly Weather Pretoriya

    Today, 17 October, Wednesday

    Time Temperature Precipitation Wind Pressure Humidity
    00:00 +5°C° 0 mm 3 mps 749 mmHg 94%
    01:00 +5°C° 0 mm 3 mps 749 mmHg 96%
    02:00 +5°C° 0 mm 3 mps 749 mmHg 95%
    03:00 +5°C° 0 mm 3 mps 748 mmHg 94%
    04:00 +5°C° 0 mm 3 mps 748 mmHg 94%
    05:00 +5°C° 0 mm 3 mps 748 mmHg 93%
    06:00 +5°C° 0 mm 3 mps 747 mmHg 93%
    07:00 +5°C° 0 mm 3 mps 747 mmHg 92%
    08:00 +7°C° 0 mm 4 mps 747 mmHg 87%
    09:00 +8°C° 0 mm 4 mps 746 mmHg 81%
    10:00 +10°C° 0 mm 5 mps 746 mmHg 76%
    11:00 +12°C° 0 mm 5 mps 746 mmHg 70%
    12:00 +13°C° 0 mm 6 mps 746 mmHg 63%
    13:00 +14°C° 0 mm 6 mps 745 mmHg 57%
    14:00 +14°C° 0 mm 6 mps 745 mmHg 57%
    15:00 +14°C° 0 mm 6 mps 745 mmHg 56%
    16:00 +14°C° 0 mm 6 mps 745 mmHg 56%
    17:00 +13°C° 0 mm 6 mps 745 mmHg 63%
    18:00 +10°C° 0 mm 6 mps 745 mmHg 70%
    19:00 +9°C° 0 mm 6 mps 746 mmHg 77%
    20:00 +9°C° 0 mm 6 mps 746 mmHg 73%
    21:00 +9°C° 0 mm 6 mps 747 mmHg 70%
    22:00 +8°C° 0 mm 6 mps 747 mmHg 67%
    23:00 +7°C° 0 mm 6 mps 747 mmHg 70%

    Tomorrow, 18 October, Thursday

    Time Temperature Precipitation Wind Pressure Humidity
    00:00 +6°C° 0 mm 5 mps 748 mmHg 72%
    01:00 +5°C° 0 mm 4 mps 748 mmHg 74%
    02:00 +4°C° 0 mm 4 mps 749 mmHg 75%
    03:00 +4°C° 0 mm 4 mps 749 mmHg 76%
    04:00 +3°C° 0 mm 3 mps 750 mmHg 77%
    05:00 +3°C° 0 mm 3 mps 750 mmHg 80%
    06:00 +2°C° 0 mm 3 mps 751 mmHg 82%
    07:00 +2°C° 0 mm 3 mps 751 mmHg 85%
    08:00 +3°C° 0 mm 3 mps 751 mmHg 79%
    09:00 +4°C° 0 mm 3 mps 751 mmHg 72%
    10:00 +5°C° 0 mm 4 mps 751 mmHg 65%
    11:00 +6°C° 0 mm 4 mps 751 mmHg 60%
    12:00 +7°C° 0 mm 4 mps 751 mmHg 55%
    13:00 +8°C° 0 mm 4 mps 751 mmHg 49%
    14:00 +8°C° 0 mm 4 mps 751 mmHg 50%
    15:00 +8°C° 0 mm 4 mps 751 mmHg 50%
    16:00 +8°C° 0 mm 4 mps 751 mmHg 50%
    17:00 +7°C° 0 mm 4 mps 751 mmHg 55%
    18:00 +7°C° 0 mm 3 mps 751 mmHg 60%
    19:00 +5°C° 0 mm 3 mps 751 mmHg 65%
    20:00 +5°C° 0 mm 3 mps 751 mmHg 67%
    21:00 +4°C° 0 mm 3 mps 751 mmHg 69%
    22:00 +5°C° 0 mm 2 mps 751 mmHg 71%
    23:00 +5°C° 0 mm 2 mps 751 mmHg 71%

    Day after tomorrow, 19 October, Friday

    Time Temperature Precipitation Wind Pressure Humidity
    00:00 +3°C° 0 mm 3 mps 751 mmHg 72%
    01:00 +3°C° 0 mm 3 mps 751 mmHg 73%
    02:00 +3°C° 0 mm 3 mps 751 mmHg 72%
    03:00 +3°C° 0 mm 3 mps 751 mmHg 71%
    04:00 +3°C° 0 mm 3 mps 751 mmHg 71%
    05:00 +3°C° 0 mm 3 mps 751 mmHg 69%
    06:00 +4°C° 0 mm 4 mps 750 mmHg 67%
    07:00 +4°C° 0 mm 4 mps 750 mmHg 65%
    08:00 +5°C° 0 mm 5 mps 750 mmHg 62%
    09:00 +7°C° 0 mm 5 mps 750 mmHg 59%
    10:00 +8°C° 0 mm 6 mps 750 mmHg 56%
    11:00 +9°C° 0 mm 6 mps 750 mmHg 55%
    12:00 +10°C° 0 mm 6 mps 750 mmHg 54%
    13:00 +12°C° 0 mm 7 mps 749 mmHg 52%
    14:00 +13°C° 0 mm 6 mps 749 mmHg 53%
    15:00 +13°C° 0 mm 6 mps 749 mmHg 54%
    16:00 +13°C° 0 mm 6 mps 749 mmHg 55%
    17:00 +12°C° 0 mm 5 mps 749 mmHg 58%
    18:00 +10°C° 0 mm 5 mps 749 mmHg 62%
    19:00 +9°C° 0 mm 5 mps 749 mmHg 65%
    20:00 +8°C° 0 mm 5 mps 749 mmHg 65%
    21:00 +8°C° 0 mm 5 mps 749 mmHg 65%
    22:00 +8°C° 0 mm 5 mps 749 mmHg 65%
    23:00 +8°C° 0 mm 5 mps 749 mmHg 65%

    20 October, Saturday

    Time Temperature Precipitation Wind Pressure Humidity
    00:00 +7°C° 0 mm 5 mps 749 mmHg 65%
    01:00 +7°C° 0 mm 5 mps 748 mmHg 65%
    02:00 +7°C° 0 mm 5 mps 749 mmHg 64%
    03:00 +7°C° 0 mm 5 mps 749 mmHg 63%
    04:00 +6°C° 0 mm 5 mps 749 mmHg 62%
    05:00 +6°C° 0 mm 5 mps 748 mmHg 60%
    06:00 +6°C° 0 mm 5 mps 748 mmHg 59%
    07:00 +6°C° 0 mm 5 mps 748 mmHg 57%
    08:00 +7°C° 0 mm 6 mps 748 mmHg 52%
    09:00 +8°C° 0 mm 6 mps 748 mmHg 48%
    10:00 +9°C° 0 mm 7 mps 748 mmHg 43%
    11:00 +11°C° 0 mm 7 mps 748 mmHg 41%
    12:00 +12°C° 0 mm 7 mps 747 mmHg 38%
    13:00 +13°C° 0 mm 8 mps 747 mmHg 35%
    14:00 +14°C° 0 mm 7 mps 747 mmHg 38%
    15:00 +14°C° 0 mm 7 mps 747 mmHg 40%
    16:00 +13°C° 0 mm 6 mps 746 mmHg 43%
    17:00 +11°C° 0 mm 6 mps 746 mmHg 46%
    18:00 +10°C° 0 mm 5 mps 747 mmHg 50%
    19:00 +9°C° 0 mm 5 mps 747 mmHg 54%
    20:00 +9°C° 0 mm 5 mps 747 mmHg 57%
    21:00 +8°C° 0 mm 4 mps 747 mmHg 60%
    22:00 +8°C° 0 mm 4 mps 747 mmHg 63%
    23:00 +9°C° 0 mm 3 mps 747 mmHg 68%

    21 October, Sunday

    Time Temperature Precipitation Wind Pressure Humidity
    00:00 +8°C° 0 mm 3 mps 747 mmHg 73%
    01:00 +8°C° 0 mm 2 mps 747 mmHg 78%
    02:00 +7°C° 0 mm 2 mps 747 mmHg 82%
    03:00 +7°C° 0 mm 2 mps 747 mmHg 85%
    04:00 +7°C° 0 mm 2 mps 747 mmHg 89%
    05:00 +7°C° 0 mm 1 mps 747 mmHg 89%
    06:00 +7°C° 0 mm 1 mps 747 mmHg 89%
    07:00 +6°C° 0 mm 1 mps 747 mmHg 90%
    08:00 +7°C° 0 mm 1 mps 748 mmHg 82%
    09:00 +8°C° 0 mm 1 mps 748 mmHg 75%
    10:00 +9°C° 0 mm 2 mps 748 mmHg 68%
    11:00 +9°C° 0 mm 2 mps 748 mmHg 63%
    12:00 +10°C° 0 mm 2 mps 748 mmHg 58%
    13:00 +12°C° 0 mm 2 mps 748 mmHg 53%
    14:00 +12°C° 0 mm 2 mps 748 mmHg 53%
    15:00 +12°C° 0 mm 2 mps 748 mmHg 53%
    16:00 +12°C° 0 mm 1 mps 748 mmHg 52%
    17:00 +10°C° 0 mm 2 mps 748 mmHg 57%
    18:00 +9°C° 0 mm 2 mps 748 mmHg 61%
    19:00 +8°C° 0 mm 2 mps 749 mmHg 65%
    20:00 +7°C° 0 mm 2 mps 749 mmHg 67%
    21:00 +7°C° 0 mm 2 mps 749 mmHg 69%
    22:00 +6°C° 0 mm 2 mps 749 mmHg 72%
    23:00 +7°C° 0 mm 1 mps 749 mmHg 73%

    22 October, Monday

    Time Temperature Precipitation Wind Pressure Humidity
    00:00 +7°C° 0 mm 1 mps 749 mmHg 74%
    01:00 +7°C° 0 mm 1 mps 749 mmHg 74%
    02:00 +6°C° 0 mm 1 mps 749 mmHg 76%
    03:00 +6°C° 0 mm 1 mps 749 mmHg 77%
    04:00 +6°C° 0 mm 1 mps 749 mmHg 78%
    05:00 +5°C° 0 mm 1 mps 749 mmHg 79%
    06:00 +5°C° 0 mm 1 mps 749 mmHg 79%
    07:00 +5°C° 0 mm 1 mps 749 mmHg 80%
    08:00 +6°C° 0 mm 1 mps 749 mmHg 75%
    09:00 +7°C° 0 mm 1 mps 749 mmHg 70%
    10:00 +8°C° 0 mm 1 mps 749 mmHg 64%
    11:00 +9°C° 0 mm 1 mps 749 mmHg 60%
    12:00 +10°C° 0 mm 1 mps 749 mmHg 56%
    13:00 +11°C° 0 mm 1 mps 749 mmHg 51%
    14:00 +11°C° 0 mm 1 mps 749 mmHg 51%
    15:00 +11°C° 0 mm 1 mps 749 mmHg 50%
    16:00 +11°C° 0 mm 1 mps 748 mmHg 49%
    17:00 +9°C° 0 mm 0 mps 748 mmHg 53%
    18:00 +8°C° 0 mm 0 mps 748 mmHg 58%
    19:00 +7°C° 0 mm 0 mps 748 mmHg 62%
    20:00 +6°C° 0 mm 0 mps 748 mmHg 63%
    21:00 +7°C° 0 mm 1 mps 748 mmHg 65%
    22:00 +7°C° 0 mm 1 mps 748 mmHg 66%
    23:00 +6°C° 0 mm 1 mps 748 mmHg 67%
    Show more